Soldotna, AK

11:56 AM AKST on December 06, 2019 (GMT -0900)
Soldotna

Weather History for PASX - October, 2019

Change the Weather History Date:

Wednesday, October 9, 2019

  Actual Average Record
Temperature  
Mean Temperature 45 °F -  
Max Temperature 48 °F 44 °F 62 °F (2006)
Min Temperature 42 °F 30 °F 15 °F (2007)
Degree Days  
Heating Degree Days 20    
Moisture  
Dew Point 44 °F    
Average Humidity 97    
Maximum Humidity 100    
Minimum Humidity 93    
Precipitation  
Precipitation 0.69 in - - ()
Sea Level Pressure  
Sea Level Pressure 30.02 in    
Wind  
Wind Speed 3 mph (ESE)    
Max Wind Speed 8 mph    
Max Gust Speed -    
Visibility 9 miles    
Events Rain    
Averages and records for this station are not official NWS values.
T = Trace of Precipitation, MM = Missing Value Source: NWS Daily Summary

Daily Weather History Graph

Daily Weather History Graph

Search for Another Location

Airport or City:

Astronomy

Oct. 09, 2019 Rise Set
Actual Time 8:29 AM AKDT 7:11 PM AKDT
Civil Twilight 7:47 AM AKDT 7:54 PM AKDT
Nautical Twilight 6:58 AM AKDT 8:42 PM AKDT
Astronomical Twilight 6:07 AM AKDT 9:32 PM AKDT
Moon 7:04 PM AKDT (10/9) 2:57 AM AKDT (10/9)
Length of Visible Light 12h 06m
Length of Day
10h 42m
Waxing Gibbous, 86% of the Moon is Illuminated
Oct 9
Waxing Gibbous
Oct 13
Full
Oct 21
Last Quarter
Oct 27
New
Nov 4
First Quarter

Hourly Weather History & Observations

Time (AKDT) Temp. Windchill Dew Point Humidity Pressure Visibility Wind Dir Wind Speed Gust Speed Precip Events Conditions
12:56 AM 42.1 °F - 42.1 °F 100% 30.17 in 7.0 mi Calm Calm - 0.05 in Rain Rain
1:56 AM 42.1 °F - 42.1 °F 100% 30.17 in 8.0 mi Calm Calm - 0.04 in Rain Light Rain
2:56 AM 42.1 °F 38.4 °F 41.0 °F 96% 30.15 in 10.0 mi ESE 5.8 mph - 0.04 in Rain Light Rain
3:56 AM 42.1 °F 39.2 °F 41.0 °F 96% 30.14 in 10.0 mi East 4.6 mph - 0.02 in Rain Light Rain
4:56 AM 42.1 °F 38.4 °F 41.0 °F 96% 30.12 in 10.0 mi East 5.8 mph - 0.01 in Rain Light Rain
5:56 AM 42.1 °F 38.4 °F 41.0 °F 96% 30.10 in 10.0 mi East 5.8 mph - 0.01 in Rain Light Rain
6:56 AM 42.1 °F 40.2 °F 41.0 °F 96% 30.10 in 10.0 mi ENE 3.5 mph - 0.01 in Rain Light Rain
7:56 AM 42.1 °F 39.2 °F 41.0 °F 96% 30.08 in 10.0 mi East 4.6 mph - 0.02 in Rain Light Rain
8:56 AM 42.1 °F 38.4 °F 41.0 °F 96% 30.06 in 10.0 mi East 5.8 mph - 0.04 in Rain Light Rain
9:56 AM 44.1 °F 40.8 °F 42.1 °F 93% 30.06 in 10.0 mi East 5.8 mph - 0.03 in Rain Light Rain
10:56 AM 44.1 °F 40.8 °F 43.0 °F 96% 30.06 in 10.0 mi East 5.8 mph - 0.02 in Rain Light Rain
11:56 AM 44.1 °F 40.1 °F 43.0 °F 96% 30.06 in 10.0 mi East 6.9 mph - 0.05 in Rain Light Rain
12:56 PM 45.0 °F 40.6 °F 44.1 °F 97% 30.06 in 10.0 mi East 8.1 mph - 0.05 in Rain Light Rain
1:56 PM 46.9 °F - 45.0 °F 93% 30.03 in 10.0 mi East 6.9 mph - 0.01 in Rain Light Rain
2:56 PM 48.0 °F - 46.0 °F 93% 30.01 in 9.0 mi East 3.5 mph - 0.01 in Rain Light Rain
3:56 PM 48.0 °F - 46.0 °F 93% 29.99 in 10.0 mi Calm Calm - 0.02 in Rain Light Rain
4:56 PM 48.0 °F - 46.9 °F 96% 29.97 in 10.0 mi Calm Calm - 0.01 in Rain Light Rain
5:56 PM 46.9 °F - 46.9 °F 100% 29.96 in 10.0 mi Calm Calm - 0.03 in Rain Light Rain
6:56 PM 46.9 °F - 46.0 °F 97% 29.95 in 5.0 mi Calm Calm - 0.08 in Rain Rain
7:56 PM 46.0 °F - 46.0 °F 100% 29.94 in 10.0 mi Calm Calm - 0.04 in Rain Light Rain
8:56 PM 46.0 °F - 45.0 °F 96% 29.94 in 8.0 mi Calm Calm - 0.04 in Rain Light Rain
9:54 PM 44.6 °F 42.2 °F 44.6 °F 100% 29.90 in 3.0 mi East 4.6 mph - 0.04 in Rain Light Rain
9:56 PM 45.0 °F 41.8 °F 45.0 °F 100% 29.93 in 5.0 mi East 5.8 mph - 0.04 in Rain Light Rain
10:56 PM 45.0 °F 42.6 °F 44.1 °F 97% 29.91 in 10.0 mi ESE 4.6 mph - 0.02 in Rain Light Rain
11:43 PM 44.6 °F 43.1 °F 44.6 °F 100% 29.87 in 10.0 mi South 3.5 mph - 0.00 in Rain Light Rain
11:56 PM 46.0 °F 44.8 °F 45.0 °F 96% 29.90 in 3.0 mi South 3.5 mph - 0.00 in Rain Light Rain